TimeCDT,TemperatureF,Dew PointF,Humidity,Sea Level PressureIn,VisibilityMPH,Wind Direction,Wind SpeedMPH,Gust SpeedMPH,PrecipitationIn,Events,Conditions,WindDirDegrees,DateUTC
12:15 AM,35.6,26.4,69,30.17,10.0,NE,4.6,-,N/A,,Scattered Clouds,50,2013-04-06 05:15:00
12:35 AM,35.4,27.3,72,30.16,10.0,East,6.9,-,N/A,,Mostly Cloudy,80,2013-04-06 05:35:00
12:55 AM,35.6,28.4,75,30.14,10.0,East,6.9,-,N/A,,Scattered Clouds,90,2013-04-06 05:55:00
1:15 AM,34.7,26.8,73,30.16,10.0,NE,3.5,-,N/A,,Clear,50,2013-04-06 06:15:00
1:35 AM,34.3,26.6,73,30.16,10.0,NE,3.5,-,N/A,,Scattered Clouds,50,2013-04-06 06:35:00
1:55 AM,34.0,26.1,73,30.15,10.0,East,4.6,-,N/A,,Mostly Cloudy,90,2013-04-06 06:55:00
2:15 AM,34.3,25.5,70,30.16,10.0,East,3.5,-,N/A,,Scattered Clouds,80,2013-04-06 07:15:00
2:35 AM,34.0,25.2,70,30.13,10.0,East,5.8,-,N/A,,Mostly Cloudy,100,2013-04-06 07:35:00
2:55 AM,34.0,24.8,69,30.12,10.0,East,6.9,-,N/A,,Clear,90,2013-04-06 07:55:00
3:15 AM,34.0,24.8,69,30.12,10.0,East,4.6,-,N/A,,Clear,90,2013-04-06 08:15:00
3:35 AM,33.8,24.8,70,30.11,10.0,East,4.6,-,N/A,,Clear,90,2013-04-06 08:35:00
3:55 AM,33.8,24.8,70,30.09,10.0,East,9.2,-,N/A,,Clear,100,2013-04-06 08:55:00
4:15 AM,34.2,24.8,69,30.10,10.0,East,5.8,-,N/A,,Clear,100,2013-04-06 09:15:00
4:35 AM,34.2,25.2,70,30.07,10.0,ESE,9.2,-,N/A,,Clear,110,2013-04-06 09:35:00
4:55 AM,34.5,24.8,68,30.07,10.0,ESE,9.2,-,N/A,,Clear,120,2013-04-06 09:55:00
5:15 AM,34.9,24.8,67,30.07,10.0,SE,4.6,-,N/A,,Clear,130,2013-04-06 10:15:00
5:35 AM,36.7,23.7,59,30.07,10.0,SE,8.1,-,N/A,,Clear,140,2013-04-06 10:35:00
5:55 AM,37.8,22.8,55,30.08,10.0,SSE,8.1,-,N/A,,Clear,160,2013-04-06 10:55:00
6:15 AM,38.7,22.1,51,30.08,10.0,SSE,9.2,16.1,N/A,,Clear,160,2013-04-06 11:15:00
6:35 AM,39.2,21.9,50,30.07,10.0,SE,12.7,18.4,N/A,,Clear,140,2013-04-06 11:35:00
6:55 AM,39.2,22.1,50,30.06,10.0,SSE,12.7,18.4,N/A,,Clear,150,2013-04-06 11:55:00
7:15 AM,40.3,22.1,48,30.06,10.0,SSE,12.7,18.4,N/A,,Clear,150,2013-04-06 12:15:00
7:35 AM,41.0,22.5,48,30.05,10.0,SSE,13.8,19.6,N/A,,Clear,150,2013-04-06 12:35:00
7:55 AM,42.1,23.0,47,30.05,10.0,SSE,10.4,18.4,N/A,,Clear,150,2013-04-06 12:55:00
8:15 AM,43.9,23.9,45,30.04,10.0,SSE,15.0,19.6,N/A,,Clear,150,2013-04-06 13:15:00
8:35 AM,45.0,24.3,44,30.04,10.0,SSE,11.5,20.7,N/A,,Clear,150,2013-04-06 13:35:00
8:55 AM,46.4,24.8,43,30.04,10.0,SSE,12.7,23.0,N/A,,Clear,160,2013-04-06 13:55:00
9:15 AM,47.5,25.5,42,30.02,10.0,SSE,18.4,25.3,N/A,,Clear,160,2013-04-06 14:15:00
9:35 AM,49.1,26.4,41,30.01,10.0,SSE,17.3,24.2,N/A,,Clear,160,2013-04-06 14:35:00
9:55 AM,50.4,26.8,40,29.99,10.0,SSE,23.0,28.8,N/A,,Clear,160,2013-04-06 14:55:00
10:15 AM,51.4,27.5,40,29.98,10.0,SSE,17.3,26.5,N/A,,Scattered Clouds,160,2013-04-06 15:15:00
10:35 AM,52.7,27.5,38,29.97,10.0,South,18.4,28.8,N/A,,Scattered Clouds,170,2013-04-06 15:35:00
10:55 AM,56.3,28.2,34,29.96,10.0,SSE,21.9,27.6,N/A,,Clear,150,2013-04-06 15:55:00
11:15 AM,58.3,28.8,33,29.95,10.0,South,21.9,32.2,N/A,,Clear,170,2013-04-06 16:15:00
11:35 AM,59.2,29.3,32,29.94,10.0,SSE,23.0,32.2,N/A,,Clear,160,2013-04-06 16:35:00
11:55 AM,59.0,29.7,33,29.93,10.0,South,24.2,32.2,N/A,,Clear,180,2013-04-06 16:55:00
12:15 PM,61.2,30.2,31,29.92,10.0,SSE,23.0,29.9,N/A,,Clear,160,2013-04-06 17:15:00
12:35 PM,61.2,30.6,32,29.89,10.0,South,20.7,27.6,N/A,,Clear,170,2013-04-06 17:35:00
12:55 PM,64.4,31.5,29,29.88,10.0,South,20.7,27.6,N/A,,Scattered Clouds,170,2013-04-06 17:55:00
1:15 PM,65.5,31.8,28,29.85,10.0,South,20.7,33.4,N/A,,Clear,170,2013-04-06 18:15:00
1:35 PM,66.9,32.0,27,29.83,10.0,South,26.5,38.0,N/A,,Clear,180,2013-04-06 18:35:00
1:55 PM,68.2,32.0,26,29.82,10.0,South,25.3,39.1,N/A,,Clear,180,2013-04-06 18:55:00
2:15 PM,68.0,32.2,26,29.79,10.0,South,35.7,42.6,N/A,,Clear,180,2013-04-06 19:15:00
2:35 PM,68.2,32.2,26,29.77,10.0,South,29.9,43.7,N/A,,Clear,180,2013-04-06 19:35:00
2:55 PM,69.6,32.0,25,29.75,10.0,South,35.7,47.2,N/A,,Clear,180,2013-04-06 19:55:00
3:15 PM,70.3,32.2,24,29.74,10.0,South,21.9,42.6,N/A,,Clear,180,2013-04-06 20:15:00
3:35 PM,71.1,32.0,24,29.73,10.0,South,27.6,43.7,N/A,,Clear,190,2013-04-06 20:35:00
3:55 PM,69.8,32.2,25,29.72,10.0,South,25.3,36.8,N/A,,Scattered Clouds,190,2013-04-06 20:55:00
4:15 PM,69.3,32.2,25,29.71,10.0,South,25.3,39.1,N/A,,Scattered Clouds,190,2013-04-06 21:15:00
4:35 PM,69.4,32.2,25,29.71,10.0,South,27.6,40.3,N/A,,Clear,190,2013-04-06 21:35:00
4:55 PM,68.9,32.9,26,29.73,10.0,SSW,26.5,38.0,N/A,,Scattered Clouds,200,2013-04-06 21:55:00
5:15 PM,68.0,33.8,28,29.72,10.0,SSW,24.2,38.0,N/A,,Mostly Cloudy,200,2013-04-06 22:15:00
5:35 PM,68.5,34.7,29,29.72,10.0,South,17.3,27.6,N/A,,Scattered Clouds,190,2013-04-06 22:35:00
5:55 PM,68.0,35.1,30,29.70,10.0,SSW,23.0,31.1,N/A,,Mostly Cloudy,200,2013-04-06 22:55:00
6:15 PM,68.2,34.9,29,29.70,10.0,South,20.7,33.4,N/A,,Mostly Cloudy,190,2013-04-06 23:15:00
6:35 PM,67.3,35.8,31,29.71,10.0,SSW,15.0,24.2,N/A,,Overcast,200,2013-04-06 23:35:00
6:55 PM,62.6,42.8,48,29.68,10.0,South,18.4,28.8,N/A,Rain,Light Rain,190,2013-04-06 23:55:00
7:15 PM,64.0,39.0,40,29.68,10.0,South,19.6,27.6,N/A,,Overcast,190,2013-04-07 00:15:00
7:35 PM,65.3,36.1,34,29.69,10.0,SSW,21.9,28.8,N/A,Rain,Light Rain,200,2013-04-07 00:35:00
7:55 PM,63.3,39.6,42,29.70,10.0,SSW,19.6,32.2,N/A,Rain,Light Rain,200,2013-04-07 00:55:00
8:15 PM,61.2,41.7,49,29.69,10.0,SSW,18.4,23.0,N/A,Rain,Light Rain,200,2013-04-07 01:15:00
8:35 PM,62.6,39.0,42,29.68,10.0,South,19.6,27.6,N/A,,Overcast,190,2013-04-07 01:35:00
8:55 PM,62.8,38.3,40,29.68,10.0,South,16.1,26.5,N/A,Rain,Light Rain,190,2013-04-07 01:55:00
9:15 PM,63.3,37.6,39,29.67,10.0,South,21.9,31.1,N/A,,Light Drizzle,190,2013-04-07 02:15:00
9:35 PM,62.8,38.3,40,29.67,10.0,South,25.3,29.9,N/A,Rain,Light Rain,190,2013-04-07 02:35:00
9:55 PM,62.6,38.5,41,29.66,10.0,SSW,21.9,28.8,N/A,,Overcast,200,2013-04-07 02:55:00
10:15 PM,62.8,38.1,40,29.65,10.0,South,24.2,32.2,N/A,,Overcast,190,2013-04-07 03:15:00
10:35 PM,62.2,37.8,40,29.64,10.0,SSW,23.0,34.5,N/A,,Mostly Cloudy,200,2013-04-07 03:35:00
10:55 PM,62.6,36.9,38,29.64,10.0,SSW,23.0,29.9,N/A,,Mostly Cloudy,210,2013-04-07 03:55:00
11:15 PM,62.2,36.5,38,29.63,10.0,SSW,23.0,29.9,N/A,Thunderstorm,Thunderstorm,210,2013-04-07 04:15:00
11:35 PM,60.1,41.0,49,29.64,10.0,SSW,24.2,35.7,N/A,Rain,Rain,210,2013-04-07 04:35:00
11:55 PM,60.1,42.1,51,29.68,10.0,WSW,26.5,40.3,N/A,,Overcast,240,2013-04-07 04:55:00